Regional Weather Roundup
Issued by NWS Columbia, SC

Home | Current Version | Previous Version | Text Only | Print | Product List | Glossary On
Versions: 1 2 3 4 5 6 7 8 9 10 11 12 13 14 15 16 17 18 19 20 21 22 23 24 25 26 27 28 29 30 31 32 33 34 35 36 37 38 39 40 41 42 43 44 45 46 47 48 49 50
000
ASUS42 KCAE 311710
RWRCAE
REGIONAL WEATHER ROUNDUP
NATIONAL WEATHER SERVICE COLUMBIA SC
100 PM EDT MON AUG 31 2015

NOTE: "FAIR" INDICATES FEW OR NO CLOUDS BELOW 12,000 FEET WITH NO
SIGNIFICANT WEATHER AND/OR OBSTRUCTIONS TO VISIBILITY.

NOT ALL STATIONS ARE QUALITY CONTROLLED BY THE NATIONAL
WEATHER SERVICE. USE DATA WITH CAUTION...ESPECIALLY
DEWPOINT OBSERVATIONS.

SCZ001>056-GAZ040-063>065-077-311800-
...UPSTATE SOUTH CAROLINA...

CITY           SKY/WX    TMP DP  RH WIND       PRES   REMARKS
ANDERSON       SUNNY     82  65  56 VRB3      30.13F
LIBERTY        SUNNY     82  64  54 CALM      30.13F
SPARTANBURG    SUNNY     82  63  51 CALM      30.12F
CLEMSON        SUNNY     81  62  52 CALM      30.15F
GREENVILLE     SUNNY     82  63  52 VRB6      30.14F
GREENWOOD      SUNNY     82  66  58 N6        30.13F
GREER          SUNNY     81  62  52 VRB3      30.12F
ROCK HILL      PTSUNNY   82  66  58 N7        30.12F
CHESTER        MOSUNNY   86  63  45 CALM      30.12F
LAURENS        SUNNY     81  72  74 CALM      30.12F


...CENTRAL SOUTH CAROLINA...

CITY           SKY/WX    TMP DP  RH WIND       PRES   REMARKS
COLUMBIA APT   PTSUNNY   82  69  64 VRB6      30.09F
COLUMBIA OWENS MOSUNNY   83  68  60 VRB6      30.10F
DARLINGTON     CLOUDY    77  70  78 NW9       30.10F
FLORENCE       PTSUNNY   81  71  71 E6        30.07F
MCENTIRE ANGB  PTSUNNY   81  70  71 VRB3      30.09F
ORANGEBURG     CLOUDY    80  70  71 CALM      30.09F
SUMTER SHAW    MOSUNNY   78  69  74 N6        30.07F
NEWBERRY       MOSUNNY   79  68  69 CALM      30.14F
AIKEN          CLOUDY    72  68  88 N5        30.16S
BARNWELL       CLOUDY    79  72  78 N6        30.11F
MANNING        CLOUDY    79  70  73 N7        30.07F
CAMDEN         PTSUNNY   79  70  73 CALM      30.10F
LANCASTER      MOSUNNY   82  68  61 NE5       30.11F
WINNSBORO      PTSUNNY   79  70  73 N7        30.11F


...EASTERN AND COASTAL SOUTH CAROLINA...

CITY           SKY/WX    TMP DP  RH WIND       PRES   REMARKS
MYRTLE BEACH   PTSUNNY   77  72  83 CALM      30.08F
N MYRTLE BCH   CLOUDY    77  74  90 CALM      30.07F
CONWAY         CLOUDY    73  73 100 N5        30.07F
MARION         CLOUDY    77  72  83 CALM      30.07F
HARTSVILLE     CLOUDY    73  68  83 CALM      30.09F
FLORENCE       PTSUNNY   81  71  71 E6        30.07F
DARLINGTON     CLOUDY    77  70  78 NW9       30.10F
CHARLESTON APT PTSUNNY   81  73  76 N6        30.06F
MOUNT PLEASANT LGT RAIN  81  75  83 NW7       30.06F
WALTERBORO     CLOUDY    82  73  74 NW6       30.09S
BEAUFORT       CLOUDY    82  73  74 NW6       30.08S


...EASTERN GEORGIA...

CITY           SKY/WX    TMP DP  RH WIND       PRES   REMARKS
AUGUSTA BUSH F CLOUDY    76  70  82 N8        30.11F
AUGUSTA DANIEL CLOUDY    81  69  67 N6        30.13F
THOMSON        CLOUDY    75  72  90 N5        30.17F
WASHINGTON     FAIR      81  75  83 CALM      30.14F
SYLVANIA       CLOUDY    78  74  88 N5        30.11S
STATESBORO     CLOUDY    79  79  99 N7        30.09F
SAVANNAH       CLOUDY    79  73  82 NW6       30.09S


...SOUTHERN NORTH CAROLINA...

CITY           SKY/WX    TMP DP  RH WIND       PRES   REMARKS
CHARLOTTE      PTSUNNY   81  65  58 N5        30.12F
MONROE         MOSUNNY   79  68  69 VRB5      30.12F
WADESBORO      CLOUDY    76  68  77 N6        30.11F
ROCKINGHAM     CLOUDY    73  67  83 N6        30.10F
RUTHERFORDTON  SUNNY     82  62  50 CALM      30.14F
ASHEVILLE      SUNNY     79  60  52 N8        30.19F

$$


USA.gov is the U.S. government's official web portal to all federal, state and local government web resources and services.